Year,Month,Day,Hour,Minute,Value (Times are PST for temperature in C)
2020,07,25,00,00,14.70
2020,07,25,00,01,14.70
2020,07,25,00,02,14.70
2020,07,25,00,03,14.70
2020,07,25,00,04,14.70
2020,07,25,00,05,14.70
2020,07,25,00,06,14.70
2020,07,25,00,07,14.60
2020,07,25,00,08,14.60
2020,07,25,00,09,14.60
2020,07,25,00,10,14.60
2020,07,25,00,11,14.60
2020,07,25,00,12,14.60
2020,07,25,00,13,14.60
2020,07,25,00,14,14.60
2020,07,25,00,15,14.60
2020,07,25,00,16,14.60
2020,07,25,00,17,14.60
2020,07,25,00,18,14.60
2020,07,25,00,19,14.60
2020,07,25,00,20,14.60
2020,07,25,00,21,14.60
2020,07,25,00,22,14.60
2020,07,25,00,23,14.60
2020,07,25,00,24,14.60
2020,07,25,00,25,14.50
2020,07,25,00,26,14.50
2020,07,25,00,27,14.50
2020,07,25,00,28,14.50
2020,07,25,00,29,14.50
2020,07,25,00,30,14.50
2020,07,25,00,31,14.50
2020,07,25,00,32,14.50
2020,07,25,00,33,14.50
2020,07,25,00,34,14.50
2020,07,25,00,35,14.40
2020,07,25,00,36,14.40
2020,07,25,00,37,14.40
2020,07,25,00,38,14.40
2020,07,25,00,39,14.40
2020,07,25,00,40,14.40
2020,07,25,00,41,14.40
2020,07,25,00,42,14.40
2020,07,25,00,43,14.40
2020,07,25,00,44,14.40
2020,07,25,00,45,14.40
2020,07,25,00,46,14.30
2020,07,25,00,47,14.30
2020,07,25,00,48,14.30
2020,07,25,00,49,14.30
2020,07,25,00,50,14.30
2020,07,25,00,51,14.30
2020,07,25,00,52,14.30
2020,07,25,00,53,14.30
2020,07,25,00,54,14.30
2020,07,25,00,55,14.20
2020,07,25,00,56,14.20
2020,07,25,00,57,14.20
2020,07,25,00,58,14.20
2020,07,25,00,59,14.20
2020,07,25,01,00,14.20
2020,07,25,01,01,14.20
2020,07,25,01,02,14.20
2020,07,25,01,03,14.20
2020,07,25,01,04,14.20
2020,07,25,01,05,14.20
2020,07,25,01,06,14.20
2020,07,25,01,07,14.10
2020,07,25,01,08,14.10
2020,07,25,01,09,14.10
2020,07,25,01,10,14.10
2020,07,25,01,11,14.10
2020,07,25,01,12,14.10
2020,07,25,01,13,14.10
2020,07,25,01,14,14.00
2020,07,25,01,15,14.00
2020,07,25,01,16,14.00
2020,07,25,01,17,14.00
2020,07,25,01,18,13.90
2020,07,25,01,19,13.90
2020,07,25,01,20,13.90
2020,07,25,01,21,13.90
2020,07,25,01,22,13.90
2020,07,25,01,23,13.80
2020,07,25,01,24,13.80
2020,07,25,01,25,13.80
2020,07,25,01,26,13.80
2020,07,25,01,27,13.80
2020,07,25,01,28,13.70
2020,07,25,01,29,13.70
2020,07,25,01,30,13.70
2020,07,25,01,31,13.70
2020,07,25,01,32,13.70
2020,07,25,01,33,13.70
2020,07,25,01,34,13.70
2020,07,25,01,35,13.70
2020,07,25,01,36,13.70
2020,07,25,01,37,13.70
2020,07,25,01,38,13.60
2020,07,25,01,39,13.60
2020,07,25,01,40,13.60
2020,07,25,01,41,13.60
2020,07,25,01,42,13.60
2020,07,25,01,43,13.60
2020,07,25,01,44,13.60
2020,07,25,01,45,13.60
2020,07,25,01,46,13.50
2020,07,25,01,47,13.50
2020,07,25,01,48,13.50
2020,07,25,01,49,13.50
2020,07,25,01,50,13.40
2020,07,25,01,51,13.40
2020,07,25,01,52,13.40
2020,07,25,01,53,13.40
2020,07,25,01,54,13.40
2020,07,25,01,55,13.40
2020,07,25,01,56,13.40
2020,07,25,01,57,13.40
2020,07,25,01,58,13.40
2020,07,25,01,59,13.40
2020,07,25,02,00,13.40
2020,07,25,02,01,13.40
2020,07,25,02,02,13.40
2020,07,25,02,03,13.40
2020,07,25,02,04,13.40
2020,07,25,02,05,13.40
2020,07,25,02,06,13.40
2020,07,25,02,07,13.40
2020,07,25,02,08,13.40
2020,07,25,02,09,13.30
2020,07,25,02,10,13.30
2020,07,25,02,11,13.30
2020,07,25,02,12,13.30
2020,07,25,02,13,13.30
2020,07,25,02,14,13.30
2020,07,25,02,15,13.30
2020,07,25,02,16,13.20
2020,07,25,02,17,13.20
2020,07,25,02,18,13.20
2020,07,25,02,19,13.20
2020,07,25,02,20,13.20
2020,07,25,02,21,13.20
2020,07,25,02,22,13.20
2020,07,25,02,23,13.20
2020,07,25,02,24,13.20
2020,07,25,02,25,13.20
2020,07,25,02,26,13.20
2020,07,25,02,27,13.10
2020,07,25,02,28,13.10
2020,07,25,02,29,13.10
2020,07,25,02,30,13.10
2020,07,25,02,31,13.10
2020,07,25,02,32,13.00
2020,07,25,02,33,13.00
2020,07,25,02,34,13.00
2020,07,25,02,35,12.90
2020,07,25,02,36,12.90
2020,07,25,02,37,12.90
2020,07,25,02,38,12.90
2020,07,25,02,39,12.90
2020,07,25,02,40,12.80
2020,07,25,02,41,12.80
2020,07,25,02,42,12.80
2020,07,25,02,43,12.80
2020,07,25,02,44,12.80
2020,07,25,02,45,12.70
2020,07,25,02,46,12.70
2020,07,25,02,47,12.70
2020,07,25,02,48,12.70
2020,07,25,02,49,12.70
2020,07,25,02,50,12.70
2020,07,25,02,51,12.70
2020,07,25,02,52,12.70
2020,07,25,02,53,12.70
2020,07,25,02,54,12.70
2020,07,25,02,55,12.70
2020,07,25,02,56,12.70
2020,07,25,02,57,12.70
2020,07,25,02,58,12.70
2020,07,25,02,59,12.70
2020,07,25,03,00,12.70
2020,07,25,03,01,12.70
2020,07,25,03,02,12.70
2020,07,25,03,03,12.70
2020,07,25,03,04,12.70
2020,07,25,03,05,12.70
2020,07,25,03,06,12.70
2020,07,25,03,07,12.70
2020,07,25,03,08,12.70
2020,07,25,03,09,12.70
2020,07,25,03,10,12.70
2020,07,25,03,11,12.70
2020,07,25,03,12,12.70
2020,07,25,03,13,12.60
2020,07,25,03,14,12.60
2020,07,25,03,15,12.60
2020,07,25,03,16,12.60
2020,07,25,03,17,12.50
2020,07,25,03,18,12.50
2020,07,25,03,19,12.50
2020,07,25,03,20,12.50
2020,07,25,03,21,12.40
2020,07,25,03,22,12.40
2020,07,25,03,23,12.40
2020,07,25,03,24,12.40
2020,07,25,03,25,12.40
2020,07,25,03,26,12.40
2020,07,25,03,27,12.40
2020,07,25,03,28,12.40
2020,07,25,03,29,12.40
2020,07,25,03,30,12.40
2020,07,25,03,31,12.40
2020,07,25,03,32,12.40
2020,07,25,03,33,12.40
2020,07,25,03,34,12.40
2020,07,25,03,35,12.40
2020,07,25,03,36,12.30
2020,07,25,03,37,12.30
2020,07,25,03,38,12.30
2020,07,25,03,39,12.30
2020,07,25,03,40,12.30
2020,07,25,03,41,12.30
2020,07,25,03,42,12.30
2020,07,25,03,43,12.30
2020,07,25,03,44,12.30
2020,07,25,03,45,12.30
2020,07,25,03,46,12.30
2020,07,25,03,47,12.30
2020,07,25,03,48,12.30
2020,07,25,03,49,12.30
2020,07,25,03,50,12.30
2020,07,25,03,51,12.30
2020,07,25,03,52,12.30
2020,07,25,03,53,12.20
2020,07,25,03,54,12.20
2020,07,25,03,55,12.20
2020,07,25,03,56,12.20
2020,07,25,03,57,12.20
2020,07,25,03,58,12.20
2020,07,25,03,59,12.20
2020,07,25,04,00,12.20
2020,07,25,04,01,12.20
2020,07,25,04,02,12.20
2020,07,25,04,03,12.20
2020,07,25,04,04,12.20
2020,07,25,04,05,12.20
2020,07,25,04,06,12.20
2020,07,25,04,07,12.20
2020,07,25,04,08,12.20
2020,07,25,04,09,12.10
2020,07,25,04,10,12.20
2020,07,25,04,11,12.20
2020,07,25,04,12,12.20
2020,07,25,04,13,12.20
2020,07,25,04,14,12.20
2020,07,25,04,15,12.10
2020,07,25,04,16,12.10
2020,07,25,04,17,12.10
2020,07,25,04,18,12.10
2020,07,25,04,19,12.10
2020,07,25,04,20,12.00
2020,07,25,04,21,12.00
2020,07,25,04,22,12.00
2020,07,25,04,23,12.00
2020,07,25,04,24,11.90
2020,07,25,04,25,12.00
2020,07,25,04,26,12.00
2020,07,25,04,27,12.00
2020,07,25,04,28,12.00
2020,07,25,04,29,12.00
2020,07,25,04,30,12.10
2020,07,25,04,31,12.10
2020,07,25,04,32,12.10
2020,07,25,04,33,12.10
2020,07,25,04,34,12.10
2020,07,25,04,35,12.10
2020,07,25,04,36,12.10
2020,07,25,04,37,12.10
2020,07,25,04,38,12.10
2020,07,25,04,39,12.10
2020,07,25,04,40,12.00
2020,07,25,04,41,12.00
2020,07,25,04,42,12.00
2020,07,25,04,43,12.00
2020,07,25,04,44,11.90
2020,07,25,04,45,11.90
2020,07,25,04,46,11.90
2020,07,25,04,47,11.80
2020,07,25,04,48,11.80
2020,07,25,04,49,11.80
2020,07,25,04,50,11.80
2020,07,25,04,51,11.80
2020,07,25,04,52,11.80
2020,07,25,04,53,11.80
2020,07,25,04,54,11.80
2020,07,25,04,55,11.80
2020,07,25,04,56,11.80
2020,07,25,04,57,11.80
2020,07,25,04,58,11.80
2020,07,25,04,59,11.80
2020,07,25,05,00,11.80
2020,07,25,05,01,11.80
2020,07,25,05,02,11.80
2020,07,25,05,03,11.80
2020,07,25,05,04,11.80
2020,07,25,05,05,11.80
2020,07,25,05,06,11.80
2020,07,25,05,07,11.80
2020,07,25,05,08,11.80
2020,07,25,05,09,11.80
2020,07,25,05,10,11.80
2020,07,25,05,11,11.80
2020,07,25,05,12,11.80
2020,07,25,05,13,11.80
2020,07,25,05,14,11.80
2020,07,25,05,15,11.80
2020,07,25,05,16,11.80
2020,07,25,05,17,11.80
2020,07,25,05,18,11.70
2020,07,25,05,19,11.70
2020,07,25,05,20,11.70
2020,07,25,05,21,11.70
2020,07,25,05,22,11.70
2020,07,25,05,23,11.70
2020,07,25,05,24,11.70
2020,07,25,05,25,11.60
2020,07,25,05,26,11.60
2020,07,25,05,27,11.60
2020,07,25,05,28,11.60
2020,07,25,05,29,11.60
2020,07,25,05,30,11.60
2020,07,25,05,31,11.50
2020,07,25,05,32,11.50
2020,07,25,05,33,11.50
2020,07,25,05,34,11.50
2020,07,25,05,35,11.50
2020,07,25,05,36,11.50
2020,07,25,05,37,11.40
2020,07,25,05,38,11.40
2020,07,25,05,39,11.40
2020,07,25,05,40,11.40
2020,07,25,05,41,11.40
2020,07,25,05,42,11.40
2020,07,25,05,43,11.40
2020,07,25,05,44,11.40
2020,07,25,05,45,11.40
2020,07,25,05,46,11.40
2020,07,25,05,47,11.40
2020,07,25,05,48,11.40
2020,07,25,05,49,11.40
2020,07,25,05,50,11.40
2020,07,25,05,51,11.40
2020,07,25,05,52,11.40
2020,07,25,05,53,11.30
2020,07,25,05,54,11.30
2020,07,25,05,55,11.30
2020,07,25,05,56,11.30
2020,07,25,05,57,11.30
2020,07,25,05,58,11.30
2020,07,25,05,59,11.30
2020,07,25,06,00,11.30
2020,07,25,06,01,11.30
2020,07,25,06,02,11.30
2020,07,25,06,03,11.30
2020,07,25,06,04,11.40
2020,07,25,06,05,11.40
2020,07,25,06,06,11.40
2020,07,25,06,07,11.40
2020,07,25,06,08,11.40
2020,07,25,06,09,11.40
2020,07,25,06,10,11.40
2020,07,25,06,11,11.40
2020,07,25,06,12,11.40
2020,07,25,06,13,11.40
2020,07,25,06,14,11.40
2020,07,25,06,15,11.40
2020,07,25,06,16,11.40
2020,07,25,06,17,11.40
2020,07,25,06,18,11.40
2020,07,25,06,19,11.40
2020,07,25,06,20,11.50
2020,07,25,06,21,11.50
2020,07,25,06,22,11.50
2020,07,25,06,23,11.60
2020,07,25,06,24,11.60
2020,07,25,06,25,11.60
2020,07,25,06,26,11.60
2020,07,25,06,27,11.70
2020,07,25,06,28,11.70
2020,07,25,06,29,11.70
2020,07,25,06,30,11.70
2020,07,25,06,31,11.80
2020,07,25,06,32,11.80
2020,07,25,06,33,11.80
2020,07,25,06,34,11.90
2020,07,25,06,35,11.90
2020,07,25,06,36,11.90
2020,07,25,06,37,12.00
2020,07,25,06,38,12.10
2020,07,25,06,39,12.10
2020,07,25,06,40,12.10
2020,07,25,06,41,12.10
2020,07,25,06,42,12.10
2020,07,25,06,43,12.20
2020,07,25,06,44,12.20
2020,07,25,06,45,12.20
2020,07,25,06,46,12.20
2020,07,25,06,47,12.20
2020,07,25,06,48,12.30
2020,07,25,06,49,12.30
2020,07,25,06,50,12.40
2020,07,25,06,51,12.50
2020,07,25,06,52,12.50
2020,07,25,06,53,12.60
2020,07,25,06,54,12.60
2020,07,25,06,55,12.60
2020,07,25,06,56,12.70
2020,07,25,06,57,12.70
2020,07,25,06,58,12.80
2020,07,25,06,59,12.80
2020,07,25,07,00,12.90
2020,07,25,07,01,12.90
2020,07,25,07,02,13.00
2020,07,25,07,03,13.10
2020,07,25,07,04,13.20
2020,07,25,07,05,13.20
2020,07,25,07,06,13.30
2020,07,25,07,07,13.30
2020,07,25,07,08,13.30
2020,07,25,07,09,13.40
2020,07,25,07,10,13.50
2020,07,25,07,11,13.50
2020,07,25,07,12,13.60
2020,07,25,07,13,13.70
2020,07,25,07,14,13.70
2020,07,25,07,15,13.80
2020,07,25,07,16,13.80
2020,07,25,07,17,13.90
2020,07,25,07,18,13.90
2020,07,25,07,19,14.00
2020,07,25,07,20,14.10
2020,07,25,07,21,14.20
2020,07,25,07,22,14.20
2020,07,25,07,23,14.30
2020,07,25,07,24,14.30
2020,07,25,07,25,14.40
2020,07,25,07,26,14.40
2020,07,25,07,27,14.40
2020,07,25,07,28,14.40
2020,07,25,07,29,14.50
2020,07,25,07,30,14.50
2020,07,25,07,31,14.50
2020,07,25,07,32,14.50
2020,07,25,07,33,14.60
2020,07,25,07,34,14.60
2020,07,25,07,35,14.60
2020,07,25,07,36,14.70
2020,07,25,07,37,14.70
2020,07,25,07,38,14.80
2020,07,25,07,39,14.80
2020,07,25,07,40,14.80
2020,07,25,07,41,14.90
2020,07,25,07,42,15.00
2020,07,25,07,43,15.20
2020,07,25,07,44,15.30
2020,07,25,07,45,15.40
2020,07,25,07,46,15.50
2020,07,25,07,47,15.60
2020,07,25,07,48,15.70
2020,07,25,07,49,15.80
2020,07,25,07,50,15.80
2020,07,25,07,51,15.80
2020,07,25,07,52,15.90
2020,07,25,07,53,16.00
2020,07,25,07,54,16.00
2020,07,25,07,55,16.10
2020,07,25,07,56,16.20
2020,07,25,07,57,16.20
2020,07,25,07,58,16.20
2020,07,25,07,59,16.20
2020,07,25,08,00,16.20
2020,07,25,08,01,16.30
2020,07,25,08,02,16.30
2020,07,25,08,03,16.30
2020,07,25,08,04,16.20
2020,07,25,08,05,16.20
2020,07,25,08,06,16.20
2020,07,25,08,07,16.20
2020,07,25,08,08,16.20
2020,07,25,08,09,16.20
2020,07,25,08,10,16.20
2020,07,25,08,11,16.20
2020,07,25,08,12,16.20
2020,07,25,08,13,16.20
2020,07,25,08,14,16.20
2020,07,25,08,15,16.30
2020,07,25,08,16,16.30
2020,07,25,08,17,16.30
2020,07,25,08,18,16.30
2020,07,25,08,19,16.40
2020,07,25,08,20,16.40
2020,07,25,08,21,16.50
2020,07,25,08,22,16.50
2020,07,25,08,23,16.50
2020,07,25,08,24,16.60
2020,07,25,08,25,16.60
2020,07,25,08,26,16.60
2020,07,25,08,27,16.60
2020,07,25,08,28,16.60
2020,07,25,08,29,16.60
2020,07,25,08,30,16.70
2020,07,25,08,31,16.70
2020,07,25,08,32,16.80
2020,07,25,08,33,16.80
2020,07,25,08,34,16.80
2020,07,25,08,35,16.90
2020,07,25,08,36,16.90
2020,07,25,08,37,16.80
2020,07,25,08,38,16.80
2020,07,25,08,39,16.70
2020,07,25,08,40,16.70
2020,07,25,08,41,16.60
2020,07,25,08,42,16.60
2020,07,25,08,43,16.50
2020,07,25,08,44,16.50
2020,07,25,08,45,16.50
2020,07,25,08,46,16.50
2020,07,25,08,47,16.50
2020,07,25,08,48,16.60
2020,07,25,08,49,16.60
2020,07,25,08,50,16.70
2020,07,25,08,51,16.70
2020,07,25,08,52,16.80
2020,07,25,08,53,16.90
2020,07,25,08,54,16.90
2020,07,25,08,55,16.80
2020,07,25,08,56,16.80
2020,07,25,08,57,16.70
2020,07,25,08,58,16.70
2020,07,25,08,59,16.70
2020,07,25,09,00,16.60
2020,07,25,09,01,16.60
2020,07,25,09,02,16.50
2020,07,25,09,03,16.50
2020,07,25,09,04,16.50
2020,07,25,09,05,16.50
2020,07,25,09,06,16.60
2020,07,25,09,07,16.60
2020,07,25,09,08,16.70
2020,07,25,09,09,16.70
2020,07,25,09,10,16.70
2020,07,25,09,11,16.60
2020,07,25,09,12,16.60
2020,07,25,09,13,16.50
2020,07,25,09,14,16.50
2020,07,25,09,15,16.50
2020,07,25,09,16,16.50
2020,07,25,09,17,16.60
2020,07,25,09,18,16.60
2020,07,25,09,19,16.60
2020,07,25,09,20,16.70
2020,07,25,09,21,16.80
2020,07,25,09,22,16.80
2020,07,25,09,23,16.90
2020,07,25,09,24,17.00
2020,07,25,09,25,17.00
2020,07,25,09,26,17.10
2020,07,25,09,27,17.10
2020,07,25,09,28,17.00
2020,07,25,09,29,17.00
2020,07,25,09,30,16.90
2020,07,25,09,31,16.80
2020,07,25,09,32,16.80
2020,07,25,09,33,16.70
2020,07,25,09,34,16.70
2020,07,25,09,35,16.70
2020,07,25,09,36,16.80
2020,07,25,09,37,16.80
2020,07,25,09,38,16.80
2020,07,25,09,39,16.80
2020,07,25,09,40,16.90
2020,07,25,09,41,16.90
2020,07,25,09,42,17.00
2020,07,25,09,43,17.00
2020,07,25,09,44,17.10
2020,07,25,09,45,17.10
2020,07,25,09,46,17.20
2020,07,25,09,47,17.30
2020,07,25,09,48,17.30
2020,07,25,09,49,17.30
2020,07,25,09,50,17.20
2020,07,25,09,51,17.20
2020,07,25,09,52,17.10
2020,07,25,09,53,17.10
2020,07,25,09,54,17.10
2020,07,25,09,55,17.00
2020,07,25,09,56,17.00
2020,07,25,09,57,17.00
2020,07,25,09,58,16.90
2020,07,25,09,59,16.90
2020,07,25,10,00,16.90
2020,07,25,10,01,16.90
2020,07,25,10,02,17.00
2020,07,25,10,03,17.00
2020,07,25,10,04,17.00
2020,07,25,10,05,17.10
2020,07,25,10,06,17.10
2020,07,25,10,07,17.20
2020,07,25,10,08,17.30
2020,07,25,10,09,17.30
2020,07,25,10,10,17.40
2020,07,25,10,11,17.40
2020,07,25,10,12,17.40
2020,07,25,10,13,17.40
2020,07,25,10,14,17.40
2020,07,25,10,15,17.40
2020,07,25,10,16,17.50
2020,07,25,10,17,17.50
2020,07,25,10,18,17.60
2020,07,25,10,19,17.60
2020,07,25,10,20,17.60
2020,07,25,10,21,17.60
2020,07,25,10,22,17.60
2020,07,25,10,23,17.60
2020,07,25,10,24,17.70
2020,07,25,10,25,17.70
2020,07,25,10,26,17.80
2020,07,25,10,27,17.90
2020,07,25,10,28,17.90
2020,07,25,10,29,17.90
2020,07,25,10,30,17.90
2020,07,25,10,31,17.90
2020,07,25,10,32,17.90
2020,07,25,10,33,17.90
2020,07,25,10,34,18.00
2020,07,25,10,35,18.00
2020,07,25,10,36,18.10
2020,07,25,10,37,18.10
2020,07,25,10,38,18.00
2020,07,25,10,39,17.90
2020,07,25,10,40,17.90
2020,07,25,10,41,17.80
2020,07,25,10,42,17.90
2020,07,25,10,43,17.90
2020,07,25,10,44,18.00
2020,07,25,10,45,18.00
2020,07,25,10,46,18.00
2020,07,25,10,47,17.90
2020,07,25,10,48,17.90
2020,07,25,10,49,17.80
2020,07,25,10,50,17.80
2020,07,25,10,51,17.80
2020,07,25,10,52,17.80
2020,07,25,10,53,17.80
2020,07,25,10,54,17.90
2020,07,25,10,55,18.00
2020,07,25,10,56,18.00
2020,07,25,10,57,18.10
2020,07,25,10,58,18.10
2020,07,25,10,59,18.10
2020,07,25,11,00,18.00
2020,07,25,11,01,17.90
2020,07,25,11,02,17.80
2020,07,25,11,03,17.70
2020,07,25,11,04,17.70
2020,07,25,11,05,17.70
2020,07,25,11,06,17.70
2020,07,25,11,07,17.70
2020,07,25,11,08,17.70
2020,07,25,11,09,17.70
2020,07,25,11,10,17.70
2020,07,25,11,11,17.60
2020,07,25,11,12,17.60
2020,07,25,11,13,17.50
2020,07,25,11,14,17.50
2020,07,25,11,15,17.60
2020,07,25,11,16,17.60
2020,07,25,11,17,17.60
2020,07,25,11,18,17.60
2020,07,25,11,19,17.60
2020,07,25,11,20,17.50
2020,07,25,11,21,17.50
2020,07,25,11,22,17.60
2020,07,25,11,23,17.60
2020,07,25,11,24,17.60
2020,07,25,11,25,17.60
2020,07,25,11,26,17.60
2020,07,25,11,27,17.60
2020,07,25,11,28,17.60
2020,07,25,11,29,17.60
2020,07,25,11,30,17.70
2020,07,25,11,31,17.70
2020,07,25,11,32,17.80
2020,07,25,11,33,17.80
2020,07,25,11,34,17.80
2020,07,25,11,35,17.90
2020,07,25,11,36,17.90
2020,07,25,11,37,17.90
2020,07,25,11,38,17.80
2020,07,25,11,39,17.80
2020,07,25,11,40,17.80
2020,07,25,11,41,17.80
2020,07,25,11,42,17.90
2020,07,25,11,43,17.90
2020,07,25,11,44,18.00
2020,07,25,11,45,18.00
2020,07,25,11,46,18.00
2020,07,25,11,47,18.00
2020,07,25,11,48,17.90
2020,07,25,11,49,17.90
2020,07,25,11,50,17.90
2020,07,25,11,51,17.80
2020,07,25,11,52,17.80
2020,07,25,11,53,17.80
2020,07,25,11,54,17.80
2020,07,25,11,55,17.90
2020,07,25,11,56,17.90
2020,07,25,11,57,18.00
2020,07,25,11,58,18.10
2020,07,25,11,59,18.20
2020,07,25,12,00,18.20
2020,07,25,12,01,18.20
2020,07,25,12,02,18.10
2020,07,25,12,03,18.10
2020,07,25,12,04,18.00
2020,07,25,12,05,17.90
2020,07,25,12,06,17.90
2020,07,25,12,07,17.90
2020,07,25,12,08,18.00
2020,07,25,12,09,18.00
2020,07,25,12,10,18.10
2020,07,25,12,11,18.10
2020,07,25,12,12,18.20
2020,07,25,12,13,18.30
2020,07,25,12,14,18.30
2020,07,25,12,15,18.30
2020,07,25,12,16,18.30
2020,07,25,12,17,18.40
2020,07,25,12,18,18.40
2020,07,25,12,19,18.40
2020,07,25,12,20,18.50
2020,07,25,12,21,18.60
2020,07,25,12,22,18.60
2020,07,25,12,23,18.60
2020,07,25,12,24,18.60
2020,07,25,12,25,18.50
2020,07,25,12,26,18.50
2020,07,25,12,27,18.40
2020,07,25,12,28,18.30
2020,07,25,12,29,18.20
2020,07,25,12,30,18.20
2020,07,25,12,31,18.30
2020,07,25,12,32,18.30
2020,07,25,12,33,18.20
2020,07,25,12,34,18.20
2020,07,25,12,35,18.30
2020,07,25,12,36,18.40
2020,07,25,12,37,18.50
2020,07,25,12,38,18.60
2020,07,25,12,39,18.60
2020,07,25,12,40,18.60
2020,07,25,12,41,18.60
2020,07,25,12,42,18.50
2020,07,25,12,43,18.40
2020,07,25,12,44,18.30
2020,07,25,12,45,18.30
2020,07,25,12,46,18.30
2020,07,25,12,47,18.40
2020,07,25,12,48,18.50
2020,07,25,12,49,18.50
2020,07,25,12,50,18.50
2020,07,25,12,51,18.50
2020,07,25,12,52,18.50
2020,07,25,12,53,18.50
2020,07,25,12,54,18.40
2020,07,25,12,55,18.40
2020,07,25,12,56,18.40
2020,07,25,12,57,18.50
2020,07,25,12,58,18.50
2020,07,25,12,59,18.50
2020,07,25,13,00,18.50
2020,07,25,13,01,18.60
2020,07,25,13,02,18.60
2020,07,25,13,03,18.60
2020,07,25,13,04,18.60
2020,07,25,13,05,18.60
2020,07,25,13,06,18.60
2020,07,25,13,07,18.70
2020,07,25,13,08,18.60
2020,07,25,13,09,18.60
2020,07,25,13,10,18.50
2020,07,25,13,11,18.40
2020,07,25,13,12,18.30
2020,07,25,13,13,18.30
2020,07,25,13,14,18.30
2020,07,25,13,15,18.30
2020,07,25,13,16,18.20
2020,07,25,13,17,18.20
2020,07,25,13,18,18.20
2020,07,25,13,19,18.10
2020,07,25,13,20,18.20
2020,07,25,13,21,18.20
2020,07,25,13,22,18.30
2020,07,25,13,23,18.30
2020,07,25,13,24,18.40
2020,07,25,13,25,18.50
2020,07,25,13,26,18.60
2020,07,25,13,27,18.60
2020,07,25,13,28,18.70
2020,07,25,13,29,18.60
2020,07,25,13,30,18.60
2020,07,25,13,31,18.60
2020,07,25,13,32,18.70
2020,07,25,13,33,18.80
2020,07,25,13,34,18.90
2020,07,25,13,35,18.90
2020,07,25,13,36,18.80
2020,07,25,13,37,18.70
2020,07,25,13,38,18.70
2020,07,25,13,39,18.70
2020,07,25,13,40,18.60
2020,07,25,13,41,18.60
2020,07,25,13,42,18.50
2020,07,25,13,43,18.50
2020,07,25,13,44,18.40
2020,07,25,13,45,18.40
2020,07,25,13,46,18.40
2020,07,25,13,47,18.40
2020,07,25,13,48,18.40
2020,07,25,13,49,18.40
2020,07,25,13,50,18.40
2020,07,25,13,51,18.30
2020,07,25,13,52,18.40
2020,07,25,13,53,18.40
2020,07,25,13,54,18.50
2020,07,25,13,55,18.50
2020,07,25,13,56,18.60
2020,07,25,13,57,18.70
2020,07,25,13,58,18.70
2020,07,25,13,59,18.70
2020,07,25,14,00,18.80
2020,07,25,14,01,18.80
2020,07,25,14,02,18.80
2020,07,25,14,03,18.70
2020,07,25,14,04,18.60
2020,07,25,14,05,18.50
2020,07,25,14,06,18.30
2020,07,25,14,07,18.20
2020,07,25,14,08,18.10
2020,07,25,14,09,18.10
2020,07,25,14,10,18.10
2020,07,25,14,11,18.10
2020,07,25,14,12,18.20
2020,07,25,14,13,18.30
2020,07,25,14,14,18.50
2020,07,25,14,15,18.60
2020,07,25,14,16,18.70
2020,07,25,14,17,18.80
2020,07,25,14,18,18.90
2020,07,25,14,19,18.90
2020,07,25,14,20,18.90
2020,07,25,14,21,19.00
2020,07,25,14,22,19.10
2020,07,25,14,23,19.10
2020,07,25,14,24,19.10
2020,07,25,14,25,19.00
2020,07,25,14,26,19.00
2020,07,25,14,27,19.00
2020,07,25,14,28,19.10
2020,07,25,14,29,19.10
2020,07,25,14,30,19.10
2020,07,25,14,31,19.20
2020,07,25,14,32,19.30
2020,07,25,14,33,19.30
2020,07,25,14,34,19.30
2020,07,25,14,35,19.30
2020,07,25,14,36,19.30
2020,07,25,14,37,19.40
2020,07,25,14,38,19.50
2020,07,25,14,39,19.50
2020,07,25,14,40,19.60
2020,07,25,14,41,19.60
2020,07,25,14,42,19.70
2020,07,25,14,43,19.60
2020,07,25,14,44,19.60
2020,07,25,14,45,19.60
2020,07,25,14,46,19.50
2020,07,25,14,47,19.40
2020,07,25,14,48,19.30
2020,07,25,14,49,19.20
2020,07,25,14,50,19.10
2020,07,25,14,51,19.10
2020,07,25,14,52,19.10
2020,07,25,14,53,19.00
2020,07,25,14,54,19.00
2020,07,25,14,55,19.10
2020,07,25,14,56,19.20
2020,07,25,14,57,19.20
2020,07,25,14,58,19.20
2020,07,25,14,59,19.20
2020,07,25,15,00,19.20
2020,07,25,15,01,19.20
2020,07,25,15,02,19.20
2020,07,25,15,03,19.20
2020,07,25,15,04,19.30
2020,07,25,15,05,19.40
2020,07,25,15,06,19.50
2020,07,25,15,07,19.60
2020,07,25,15,08,19.70
2020,07,25,15,09,19.70
2020,07,25,15,10,19.70
2020,07,25,15,11,19.70
2020,07,25,15,12,19.70
2020,07,25,15,13,19.80
2020,07,25,15,14,19.80
2020,07,25,15,15,19.80
2020,07,25,15,16,19.80
2020,07,25,15,17,19.80
2020,07,25,15,18,19.90
2020,07,25,15,19,20.00
2020,07,25,15,20,20.10
2020,07,25,15,21,20.10
2020,07,25,15,22,20.10
2020,07,25,15,23,20.10
2020,07,25,15,24,20.10
2020,07,25,15,25,20.00
2020,07,25,15,26,20.00
2020,07,25,15,27,20.00
2020,07,25,15,28,20.10
2020,07,25,15,29,20.00
2020,07,25,15,30,20.00
2020,07,25,15,31,19.90
2020,07,25,15,32,19.90
2020,07,25,15,33,19.90
2020,07,25,15,34,19.90
2020,07,25,15,35,19.90
2020,07,25,15,36,19.90
2020,07,25,15,37,19.90
2020,07,25,15,38,20.00
2020,07,25,15,39,20.00
2020,07,25,15,40,20.10
2020,07,25,15,41,20.10
2020,07,25,15,42,20.10
2020,07,25,15,43,20.00
2020,07,25,15,44,20.00
2020,07,25,15,45,19.90
2020,07,25,15,46,20.00
2020,07,25,15,47,20.10
2020,07,25,15,48,20.10
2020,07,25,15,49,20.10
2020,07,25,15,50,20.00
2020,07,25,15,51,20.00
2020,07,25,15,52,19.90
2020,07,25,15,53,19.90
2020,07,25,15,54,19.90
2020,07,25,15,55,19.90
2020,07,25,15,56,19.90
2020,07,25,15,57,19.90
2020,07,25,15,58,19.80
2020,07,25,15,59,19.70
2020,07,25,16,00,19.60
2020,07,25,16,01,19.40
2020,07,25,16,02,19.30
2020,07,25,16,03,19.30
2020,07,25,16,04,19.30
2020,07,25,16,05,19.30
2020,07,25,16,06,19.20
2020,07,25,16,07,19.30
2020,07,25,16,08,19.30
2020,07,25,16,09,19.30
2020,07,25,16,10,19.30
2020,07,25,16,11,19.40
2020,07,25,16,12,19.50
2020,07,25,16,13,19.60
2020,07,25,16,14,19.70
2020,07,25,16,15,19.80
2020,07,25,16,16,19.80
2020,07,25,16,17,19.80
2020,07,25,16,18,19.80
2020,07,25,16,19,19.80
2020,07,25,16,20,19.90
2020,07,25,16,21,19.90
2020,07,25,16,22,19.90
2020,07,25,16,23,20.00
2020,07,25,16,24,20.10
2020,07,25,16,25,20.10
2020,07,25,16,26,20.20
2020,07,25,16,27,20.30
2020,07,25,16,28,20.30
2020,07,25,16,29,20.40
2020,07,25,16,30,20.40
2020,07,25,16,31,20.50
2020,07,25,16,32,20.50
2020,07,25,16,33,20.60
2020,07,25,16,34,20.60
2020,07,25,16,35,20.50
2020,07,25,16,36,20.50
2020,07,25,16,37,20.40
2020,07,25,16,38,20.40
2020,07,25,16,39,20.40
2020,07,25,16,40,20.30
2020,07,25,16,41,20.20
2020,07,25,16,42,20.10
2020,07,25,16,43,20.10
2020,07,25,16,44,20.10
2020,07,25,16,45,20.10
2020,07,25,16,46,20.10
2020,07,25,16,47,20.10
2020,07,25,16,48,20.00
2020,07,25,16,49,20.00
2020,07,25,16,50,19.90
2020,07,25,16,51,19.90
2020,07,25,16,52,19.80
2020,07,25,16,53,19.80
2020,07,25,16,54,19.80
2020,07,25,16,55,19.80
2020,07,25,16,56,19.80
2020,07,25,16,57,19.80
2020,07,25,16,58,19.80
2020,07,25,16,59,19.90
2020,07,25,17,00,19.80
2020,07,25,17,01,19.80
2020,07,25,17,02,19.80
2020,07,25,17,03,19.80
2020,07,25,17,04,19.80
2020,07,25,17,05,19.80
2020,07,25,17,06,19.70
2020,07,25,17,07,19.70
2020,07,25,17,08,19.70
2020,07,25,17,09,19.70
2020,07,25,17,10,19.70
2020,07,25,17,11,19.70
2020,07,25,17,12,19.70
2020,07,25,17,13,19.70
2020,07,25,17,14,19.70
2020,07,25,17,15,19.80
2020,07,25,17,16,19.80
2020,07,25,17,17,19.90
2020,07,25,17,18,20.00
2020,07,25,17,19,20.10